Back to catalog

STARLINK-5720

AliveCommunicationsVLEO
NORAD 55619·PAYLOAD·🇺🇸 United States

Launched Feb 12, 2023 from Cape Canaveral Space Force Station

Loading…

Next Passes (next 24 hours)

TLE

FreshSource: CelesTrak SupGP

Epoch: Sep 15, 2026, 02:26 UTC

1 55619C 23020BC  26258.10187500 -.00002791  00000+0 -10107-3 0  2588
2 55619  43.0037   4.4424 0001302 264.4023 267.4311 15.27581521    12

Track STARLINK-5720 in real time with AllMySat

Download on the App Store